Flag for U.S.A. Weather past 2 weeks in Paradise, Nevada, U.S.A.

Now
67 °F

Passing clouds.


Feels Like: 67 °F
Forecast: 58 / 80 °F
Wind: No wind

Location: McCarran International Airport

Current Time: Apr 1, 2015 at 8:11:35 AM

Latest Report: Apr 1, 2015 at 6:56 AM


Visibility: 10 mi

Pressure: 29.81 "Hg

Humidity: 10%

Dew point: 9 °F

Location of ParadiseLocation

Historic Weather in Paradise — Graph

°F

Paradise temperature yesterday

Maximum temperature yesterday: 89 °F (at 1:56 PM)
Minimum temperature yesterday: 66 °F (at 3:56 AM)
Average temperature yesterday: 78 °F

Past Weeks' High & Low Weather Summary

 TemperatureHumidityPressure
High90 °F (Mar 28, 2:56 PM)48% (Mar 19, 5:56 AM)30.21 "Hg (Mar 19, 5:56 AM)
Low56 °F (Mar 20, 4:56 AM)4% (Mar 28, 4:56 PM)29.65 "Hg (Mar 31, 5:56 PM)
Average72 °F17%29.93 "Hg
* Reported Mar 17 6:56 AM — Apr 1 6:56 AM, Paradise, Weather by CustomWeather, © 2015

Note: Actual official high and low records may vary slightly from our data, if they occured in-between our weather recording intervals... More about our weather records

Advertising

Paradise weather history for previous 24 hours

 ConditionsComfort  
Time TempWeatherWind HumidityBarometerVisibility
6:56 AM
Wed, Apr 1
67 °FPassing clouds.No wind10%29.81 "Hg10 mi
5:56 AM64 °FPassing clouds.12 mph21%29.78 "Hg10 mi
4:56 AM64 °FPassing clouds.13 mph21%29.74 "Hg10 mi
3:56 AM65 °FClear.9 mph19%29.72 "Hg10 mi
2:56 AM67 °FClear.12 mph16%29.72 "Hg10 mi
1:56 AM70 °FClear.12 mph12%29.70 "Hg10 mi
12:56 AM70 °FClear.13 mph12%29.70 "Hg10 mi
11:56 PM
Tue, Mar 31
73 °FClear.25 mph12%29.66 "Hg10 mi
10:56 PM75 °FPassing clouds.25 mph12%29.67 "Hg10 mi
9:56 PM77 °FPassing clouds.17 mph11%29.68 "Hg10 mi
8:56 PM78 °FPassing clouds.13 mph11%29.68 "Hg10 mi
7:56 PM80 °FPassing clouds.16 mph8%29.67 "Hg10 mi
6:56 PM83 °FScattered clouds.24 mph7%29.66 "Hg10 mi
5:56 PM86 °FPartly sunny.21 mph6%29.65 "Hg10 mi
4:56 PM87 °FPartly sunny.23 mph6%29.67 "Hg10 mi
3:56 PM88 °FPartly sunny.21 mph6%29.69 "Hg10 mi
2:56 PM89 °FScattered clouds.21 mph4%29.71 "Hg10 mi
1:56 PM89 °FScattered clouds.20 mph7%29.75 "Hg10 mi
12:56 PM88 °FPartly sunny.22 mph8%29.78 "Hg10 mi
11:56 AM87 °FPartly sunny.16 mph8%29.80 "Hg10 mi
10:56 AM84 °FPartly sunny.15 mph9%29.82 "Hg10 mi
9:56 AM77 °FPartly sunny.No wind14%29.83 "Hg10 mi
8:56 AM74 °FScattered clouds.No wind15%29.84 "Hg10 mi
Weather by CustomWeather, © 2015

See weather overviewHow to use our weather pages